Regional Weather Roundup
Issued by NWS Jackson, KY

Home | Current Version | Previous Version | Graphics & Text | Print | Product List | Glossary On
Versions: 1 2 3 4 5 6 7 8 9 10 11 12 13 14 15 16 17 18 19 20 21 22 23 24 25 26 27
000
ASUS43 KJKL 211710
RWRJKL

EAST KENTUCKY HOURLY WEATHER ROUNDUP
NATIONAL WEATHER SERVICE JACKSON KY
100 PM EDT SAT OCT 21 2017

NOTE: "FAIR" INDICATES FEW OR NO CLOUDS BELOW 12,000 FEET WITH
NO SIGNIFICANT WEATHER AND/OR OBSTRUCTIONS TO VISIBILITY.

* THESE REPORTS ARE NOT UNDER NWS QUALITY CONTROL AND MAY NOT
  REPORT WEATHER SUCH AS PRECIPITATION AND FOG.

KYZ079-080-083-085-087-088-110-112-115-119-120-211800
...EASTERN KENTUCKY...

CITY           SKY/WX    TMP DP  RH WIND       PRES   REMARKS
JACKSON        MOSUNNY   72  52  49 VRB5      30.31F
LONDON         CLOUDY    70  49  47 W5        30.30F
SOMERSET*      MOSUNNY   70  50  49 S5        30.30F
MONTICELLO*    MOSUNNY   74  49  41 VRB7G20   30.29F
WILLIAMSBURG*  CLOUDY    70  48  46 SE6       30.30F
MIDDLESBORO*   MOSUNNY   69  53  55 CALM      30.32F
HARLAN APT*    MOSUNNY   72  50  46 CALM      30.32F
PIKE CO APT*     N/A     72  49  44 CALM      30.32S
BIG SANDY APT* SUNNY     73  48  41 SW3       30.31S
MOREHEAD APT*  MOSUNNY   72  52  49 S13       30.30F
$$

KYZ035-036-041-042-044-050-067-078-099-211800
...CENTRAL KENTUCKY...

CITY           SKY/WX    TMP DP  RH WIND       PRES   REMARKS
MT STERLING*   MOSUNNY   72  52  49 SW9       30.30S
FLEMING/MASON* CLOUDY    72  53  50 SW7       30.28F
DANVILLE*      MOSUNNY   73  45  35 SW9       30.27F
LEXINGTON      MOSUNNY   74  51  44 S13       30.27F
FRANKFORT      CLOUDY    73  46  38 SW12      30.25F
LOUISVILLE     PTSUNNY   72  52  49 S8        30.23F
LEBANON*         N/A     73  46  38 S10       30.26F
GLASGOW*       MOSUNNY   75  48  37 S5        30.24F
BOWLING GREEN  CLOUDY    75  49  39 SW9G21    30.23F
$$

KYZ091>093-OHZ055-061-077-WVZ005-015-034-035-042-211800
...SOUTHERN OHIO/WEST VIRGINIA...

CITY           SKY/WX    TMP DP  RH WIND       PRES   REMARKS
COVINGTON      CLOUDY    69  51  52 S10       30.25S
COLUMBUS       PTSUNNY   71  52  50 S6        30.25F
DAYTON         PTSUNNY   72  53  51 S10       30.25S
WILMINGTON     MOSUNNY   73  50  44 SW14      30.25F HAZE
HUNTINGTON     MOSUNNY   74  54  49 SW5       30.28F
CHARLESTON     MOSUNNY   74  50  42 W3        30.29F
PINEVILLE*     SUNNY     74  43  33 MISG      30.38S
BECKLEY        SUNNY     72  39  30 VRB6      30.35F
BLUEFIELD      SUNNY     68  42  38 CALM      30.37F
LOGAN CO APT*    N/A     72  48  43 CALM      30.32S
$$

VAZ002-007-008-TNZ017-027-036-066-071-211800
...SOUTHWEST VIRGINIA/EAST TENNESSEE...

CITY           SKY/WX    TMP DP  RH WIND       PRES   REMARKS
WISE*          MOSUNNY   72  45  37 CALM      30.37S
JONESVILLE*      N/A     70  46  43 CALM      30.34F
ABINGDON*      SUNNY     76  46  34 CALM      30.34F
BRISTOL        PTSUNNY   71  51  49 CALM      30.32F
MORRISTOWN*    SUNNY     70  48  46 E5        30.31S
SEVIERVILLE*   SUNNY     70  50  49 CALM      30.30F
KNOXVILLE      CLOUDY    67  55  65 CALM      30.31S
LAFOLLETTE*    SUNNY     66  54  63 CALM      30.35F
CROSSVILLE     SUNNY     70  44  39 VRB7      30.31F
NASHVILLE      CLOUDY    76  53  44 S13       30.23F
$$

...KEY TO REMARKS...
VSB - VISIBILITY IN MILES
WCI - WIND CHILL INDEX
HX  - HEAT INDEX

$$




USA.gov is the U.S. government's official web portal to all federal, state and local government web resources and services.